This demonstration page uses our WeatherBlox Daily Observations layout. Learn more.

Left ArrowRight Arrow

Hourly Observations for August 1, 2021

Temp ( °F °C ) Dew Point ( °F °C ) Humidity (%) Winds ( mph kmh ) Pressure ( in mb ) Visibility ( mi km ) Precip ( " mm )
12:51 am 00:51 Clear 80 26.7 66 18.9 62 62 NW 7 11 29.90 1013 10 16 0.00 0.00
1:51 am 01:51 Clear 79 26.1 66 18.9 65 65 WNW 5 7 29.90 1013 10 16 0.00 0.00
2:51 am 02:51 Clear 77 25 67 19.4 71 71 NNW 6 9 29.90 1013 10 16 0.00 0.00
3:51 am 03:51 Clear 78 25.6 67 19.4 69 69 Calm 29.91 1013 10 16 0.00 0.00
4:51 am 04:51 Partly Cloudy 77 25 67 19.4 71 71 S 5 7 29.92 1013 10 16 0.00 0.00
5:51 am 05:51 Sunny 74 23.3 69 20.6 85 85 Calm 29.96 1014 10 16 0.00 0.00
6:51 am 06:51 Sunny 80 26.7 68 20 67 67 E 3 6 29.96 1015 10 16 0.00 0.00
7:51 am 07:51 Partly Cloudy 81 27.2 65 18.3 58 58 SSE 5 7 29.98 1015 10 16 0.00 0.00
8:51 am 08:51 Sunny 85 29.4 63 17.2 48 48 VRB 3 6 29.98 1015 10 16 0.00 0.00
9:51 am 09:51 Sunny 88 31.1 64 17.8 45 45 WNW 3 6 29.98 1015 10 16 0.00 0.00
10:51 am 10:51 Sunny 92 33.3 65 18.3 41 41 WNW 7 11 29.96 1014 10 16 0.00 0.00
11:51 am 11:51 Sunny 90 32.2 63 17.2 41 41 W 8 13 29.94 1014 10 16 0.00 0.00
12:51 pm 12:51 Sunny 91 32.8 62 16.7 38 38 VRB 5 7 29.92 1013 10 16 0.00 0.00
1:42 pm 13:42 Sunny with Nearby Thunderstorms 94 34.4 62 16.7 35 35 Calm 29.79 1009 10 16 0.00 0.00
1:51 pm 13:51 Sunny 94 34.4 62 16.7 35 35 Calm 29.89 1012 10 16 0.00 0.00
2:51 pm 14:51 Sunny 95 35 62 16.7 34 34 Calm 29.88 1012 10 16 0.00 0.00
3:48 pm 15:48 Partly Cloudy with Nearby Thunderstorms 93 34 61 16 34 34 W 5 7 29.78 1008 10 16 0.00 0.00
3:51 pm 15:51 Partly Cloudy with Nearby Thunderstorms 94 34.4 62 16.7 35 35 SW 3 6 29.88 1012 10 16 0.00 0.00
4:27 pm 16:27 Partly Cloudy 86 30 66 18.9 51 51 WSW 8 13 29.82 1010 10 16 0.00 0.00
4:51 pm 16:51 Cloudy 87 30.6 65 18.3 48 48 SSW 7 11 29.91 1013 10 16 0.00 0.00
5:01 pm 17:01 Mostly Cloudy with Nearby Thunderstorms 87 30.6 65 18.3 48 48 S 7 11 29.83 1010 10 16 0.00 0.00
5:37 pm 17:37 Mostly Sunny 87 30.6 62 16.7 43 43 NW 12 19 29.79 1009 10 16 0.00 0.00
5:51 pm 17:51 Sunny 87 30.6 58 14.4 37 37 NW 6 9 29.88 1012 10 16 0.00 0.00
6:51 pm 18:51 Sunny 88 31.1 61 16.1 40 40 NNW 6 9 29.90 1012 10 16 0.00 0.00
7:51 pm 19:51 Clear 85 29.4 64 17.8 50 50 WSW 6 9 29.93 1014 10 16 0.00 0.00
8:51 pm 20:51 Clear 80 26.7 66 18.9 62 62 NW 5 7 29.94 1014 10 16 0.00 0.00
9:51 pm 21:51 Clear 78 25.6 67 19.4 69 69 NW 3 6 29.96 1014 10 16 0.00 0.00
10:51 pm 22:51 Clear 78 25.6 68 20 71 71 Calm 29.95 1014 10 16 0.00 0.00
11:51 pm 23:51 Clear 78 25.6 67 19.4 69 69 SE 3 6 29.95 1014 10 16 0.00 0.00

Powered by AerisWeather